GFSMW_prec_pwat_132.txt.gz
Precipitable_Water
0.25 0.27 0.23 0.26 0.26 0.24 0.25 0.43 0.68 1.14 1.22 1.13 1.01 0.96 0.97 1.01 1.05 1.07 1.07 1.08 1.09 1.14 1.12 1.11 1.09 1.14 1.10 1.11 1.14 1.15 1.12 1.14 1.23 1.16 1.14 1.16 1.20 1.18 1.17 1.21 1.23 1.15 1.13
0.27 0.29 0.28 0.24 0.28 0.26 0.24 0.32 0.55 1.08 1.18 1.23 1.09 0.98 0.98 1.00 1.00 1.05 1.04 1.06 1.06 1.09 1.12 1.11 1.15 1.14 1.16 1.20 1.17 1.15 1.10 1.15 1.23 1.05 1.06 0.90 1.01 1.13 1.17 1.17 1.15 1.16 1.18
0.44 0.46 0.38 0.31 0.24 0.29 0.26 0.25 0.45 0.94 1.16 1.21 1.25 1.09 1.07 1.08 1.00 1.02 1.03 1.11 1.12 1.10 1.13 1.18 1.22 1.25 1.25 1.21 1.23 1.24 1.21 1.09 1.20 1.25 1.05 0.90 0.80 0.96 1.11 1.10 1.14 1.15 1.14
0.56 0.59 0.56 0.45 0.31 0.26 0.29 0.26 0.38 0.83 1.17 1.23 1.28 1.05 0.93 0.91 0.92 0.99 1.11 1.14 1.18 1.19 1.24 1.26 1.29 1.29 1.31 1.28 1.34 1.42 1.37 1.32 1.16 1.29 1.25 1.19 1.10 0.90 0.84 1.04 1.07 1.13 1.11
0.57 0.61 0.53 0.55 0.44 0.29 0.29 0.29 0.35 0.72 1.16 1.28 1.30 1.21 1.00 1.04 1.06 1.16 1.27 1.33 1.38 1.41 1.41 1.36 1.33 1.33 1.43 1.45 1.56 1.53 1.49 1.45 1.41 1.36 1.26 1.21 1.14 1.10 0.98 0.86 0.95 1.08 1.11
0.56 0.63 0.65 0.57 0.54 0.53 0.54 0.51 0.46 0.72 1.12 1.32 1.32 1.34 1.20 1.22 1.22 1.29 1.34 1.42 1.47 1.49 1.52 1.51 1.43 1.44 1.46 1.41 1.36 1.39 1.44 1.43 1.44 1.52 1.46 1.29 1.16 1.05 1.01 0.94 0.96 0.97 1.08
0.56 0.58 0.57 0.54 0.57 0.51 0.63 0.71 0.71 0.92 1.15 1.33 1.41 1.47 1.46 1.45 1.38 1.38 1.39 1.41 1.36 1.31 1.33 1.39 1.38 1.40 1.45 1.36 1.26 1.23 1.28 1.44 1.39 1.44 1.48 1.45 1.34 1.30 1.18 1.08 1.01 0.96 1.06
0.55 0.54 0.53 0.55 0.54 0.52 0.53 0.59 0.71 0.94 1.09 1.23 1.30 1.38 1.41 1.40 1.32 1.38 1.38 1.35 1.27 1.28 1.34 1.35 1.35 1.36 1.37 1.27 1.20 1.21 1.30 1.35 1.39 1.36 1.41 1.36 1.35 1.40 1.37 1.17 1.02 0.98 0.95
0.51 0.54 0.55 0.55 0.56 0.58 0.62 0.68 0.78 0.92 1.05 1.14 1.21 1.23 1.17 1.29 1.20 1.23 1.23 1.19 1.21 1.18 1.27 1.27 1.26 1.27 1.26 1.24 1.22 1.22 1.21 1.31 1.31 1.32 1.33 1.26 1.28 1.37 1.43 1.36 1.19 0.97 0.81
0.53 0.57 0.60 0.62 0.64 0.69 0.71 0.75 0.87 0.89 0.95 0.95 1.04 1.11 1.03 1.01 1.02 1.03 1.01 1.01 1.04 1.07 1.10 1.14 1.20 1.23 1.28 1.28 1.26 1.22 1.22 1.21 1.25 1.29 1.29 1.24 1.19 1.23 1.30 1.28 1.27 1.12 0.96
0.53 0.56 0.60 0.67 0.70 0.74 0.73 0.75 0.87 0.89 0.88 0.94 0.94 0.86 0.87 0.89 0.91 0.91 0.94 0.97 1.02 1.04 1.06 1.08 1.10 1.12 1.15 1.21 1.24 1.24 1.21 1.19 1.20 1.25 1.28 1.26 1.27 1.19 1.15 1.19 1.15 1.09 1.05
0.56 0.56 0.61 0.65 0.69 0.72 0.75 0.74 0.81 0.86 0.85 0.81 0.80 0.79 0.80 0.80 0.79 0.81 0.82 0.86 0.88 0.91 0.91 0.93 0.92 0.91 0.91 0.93 0.91 0.96 1.02 1.02 0.97 0.97 1.08 1.17 1.29 1.28 1.19 1.08 1.02 1.00 1.03
0.56 0.59 0.60 0.64 0.66 0.72 0.75 0.76 0.77 0.83 0.86 0.83 0.76 0.75 0.77 0.79 0.81 0.83 0.86 0.89 0.86 0.88 0.87 0.83 0.81 0.81 0.81 0.80 0.80 0.80 0.79 0.80 0.82 0.88 0.93 1.00 1.15 1.19 1.18 1.08 0.98 1.00 1.03
0.55 0.57 0.59 0.62 0.64 0.69 0.70 0.72 0.76 0.79 0.82 0.83 0.81 0.83 0.80 0.79 0.78 0.80 0.81 0.81 0.83 0.82 0.80 0.79 0.77 0.75 0.74 0.71 0.67 0.68 0.68 0.71 0.77 0.83 0.89 0.90 0.97 1.10 1.15 1.13 0.98 1.00 1.03
0.51 0.53 0.56 0.59 0.63 0.66 0.67 0.71 0.73 0.77 0.78 0.80 0.78 0.78 0.81 0.79 0.79 0.75 0.76 0.73 0.71 0.71 0.70 0.67 0.63 0.61 0.59 0.60 0.60 0.63 0.68 0.72 0.74 0.79 0.87 0.87 0.88 1.07 1.22 1.09 0.98 1.02 1.06
0.49 0.52 0.54 0.56 0.59 0.61 0.63 0.68 0.72 0.71 0.72 0.75 0.74 0.73 0.71 0.75 0.71 0.68 0.65 0.63 0.57 0.54 0.53 0.53 0.52 0.53 0.55 0.56 0.57 0.60 0.63 0.75 0.76 0.78 0.85 0.89 0.92 0.99 1.18 1.12 1.08 1.08 1.08
0.47 0.49 0.51 0.54 0.56 0.58 0.59 0.56 0.58 0.63 0.64 0.63 0.63 0.63 0.65 0.62 0.57 0.56 0.53 0.51 0.50 0.50 0.49 0.49 0.49 0.49 0.50 0.54 0.57 0.60 0.63 0.68 0.81 0.87 0.89 0.89 1.00 1.06 1.15 1.12 1.10 1.17 1.24
0.44 0.46 0.47 0.51 0.52 0.55 0.56 0.56 0.54 0.52 0.54 0.55 0.54 0.54 0.53 0.51 0.49 0.48 0.47 0.47 0.46 0.45 0.45 0.45 0.47 0.49 0.54 0.55 0.53 0.56 0.62 0.72 0.82 0.93 0.93 0.92 1.01 1.07 1.15 1.09 1.06 1.18 1.24
0.41 0.43 0.45 0.47 0.48 0.49 0.50 0.49 0.49 0.49 0.48 0.46 0.47 0.48 0.47 0.45 0.42 0.42 0.42 0.42 0.42 0.42 0.43 0.45 0.46 0.48 0.52 0.55 0.56 0.57 0.64 0.76 0.84 0.94 1.00 1.01 1.00 1.13 1.14 1.05 1.01 1.16 1.15
0.41 0.40 0.41 0.43 0.43 0.44 0.45 0.45 0.44 0.43 0.40 0.41 0.42 0.42 0.43 0.43 0.41 0.41 0.41 0.41 0.40 0.40 0.42 0.43 0.47 0.50 0.52 0.57 0.59 0.60 0.68 0.76 0.85 0.97 1.03 1.05 1.06 1.14 1.18 1.03 1.00 1.10 1.11
0.41 0.42 0.41 0.40 0.40 0.42 0.42 0.40 0.40 0.39 0.41 0.42 0.42 0.42 0.43 0.42 0.42 0.41 0.41 0.39 0.39 0.40 0.40 0.41 0.44 0.49 0.53 0.57 0.63 0.68 0.73 0.79 0.83 0.88 0.96 1.06 1.13 1.05 1.09 1.07 1.09 1.19 1.21
0.39 0.39 0.39 0.39 0.41 0.41 0.40 0.38 0.37 0.40 0.40 0.40 0.39 0.39 0.40 0.41 0.42 0.41 0.40 0.40 0.38 0.37 0.37 0.39 0.41 0.45 0.51 0.55 0.61 0.68 0.73 0.81 0.82 0.88 0.94 1.00 1.06 1.13 1.10 1.10 1.14 1.20 1.17
0.36 0.38 0.37 0.37 0.38 0.39 0.39 0.37 0.38 0.40 0.40 0.38 0.37 0.38 0.39 0.39 0.40 0.39 0.38 0.37 0.38 0.37 0.36 0.36 0.37 0.40 0.46 0.53 0.59 0.66 0.71 0.77 0.84 0.90 0.90 0.94 0.98 1.05 1.09 1.11 1.12 1.14 1.13
0.34 0.36 0.36 0.35 0.35 0.37 0.37 0.38 0.38 0.39 0.39 0.37 0.37 0.37 0.37 0.37 0.38 0.38 0.38 0.37 0.36 0.36 0.37 0.36 0.36 0.38 0.41 0.46 0.53 0.60 0.67 0.72 0.78 0.84 0.88 0.85 0.88 1.00 0.98 1.01 1.05 1.06 1.04
0.33 0.34 0.34 0.34 0.35 0.37 0.37 0.38 0.38 0.38 0.37 0.37 0.37 0.36 0.36 0.36 0.36 0.37 0.37 0.36 0.37 0.37 0.38 0.39 0.38 0.37 0.37 0.42 0.48 0.55 0.61 0.68 0.73 0.76 0.79 0.84 0.86 0.85 0.89 0.92 0.95 0.97 0.95
0.33 0.33 0.33 0.34 0.35 0.35 0.36 0.37 0.39 0.38 0.37 0.36 0.36 0.36 0.36 0.37 0.36 0.35 0.36 0.39 0.39 0.39 0.39 0.42 0.42 0.42 0.41 0.44 0.46 0.51 0.57 0.63 0.67 0.72 0.70 0.71 0.76 0.79 0.78 0.80 0.81 0.83 0.85

GFSMW_prec_pwat_135.txt.gz
Precipitable_Water
0.44 0.49 0.54 0.43 0.33 0.35 0.33 0.32 0.30 0.36 0.73 1.23 1.31 1.39 1.17 1.15 1.09 1.12 1.13 1.21 1.19 1.26 1.25 1.25 1.24 1.19 1.24 1.22 1.19 1.18 1.15 1.14 1.23 1.16 1.13 1.18 1.25 1.23 1.20 1.18 1.14 1.18 1.25
0.39 0.44 0.50 0.57 0.61 0.55 0.40 0.37 0.33 0.33 0.47 1.16 1.30 1.36 1.35 1.16 1.08 1.07 1.18 1.16 1.21 1.20 1.26 1.21 1.21 1.15 1.17 1.22 1.28 1.19 1.14 1.17 1.23 1.06 1.07 0.92 1.03 1.14 1.18 1.20 1.18 1.17 1.21
0.37 0.41 0.46 0.55 0.63 0.63 0.56 0.42 0.36 0.34 0.36 0.62 1.33 1.35 1.44 1.30 1.10 1.01 1.12 1.15 1.18 1.17 1.18 1.20 1.22 1.20 1.16 1.17 1.27 1.25 1.21 1.11 1.19 1.23 1.04 0.90 0.82 0.96 1.19 1.18 1.21 1.20 1.17
0.39 0.43 0.47 0.54 0.60 0.63 0.64 0.56 0.41 0.36 0.37 0.50 1.20 1.25 1.27 1.11 1.04 0.97 0.98 1.07 1.11 1.09 1.10 1.17 1.22 1.21 1.26 1.23 1.34 1.31 1.31 1.27 1.11 1.25 1.28 1.20 1.16 0.97 0.94 1.20 1.17 1.20 1.17
0.42 0.44 0.48 0.56 0.62 0.64 0.70 0.69 0.49 0.39 0.37 0.41 0.86 1.28 1.27 1.32 1.15 1.03 0.95 1.02 1.14 1.14 1.11 1.12 1.16 1.21 1.33 1.31 1.29 1.34 1.40 1.43 1.37 1.39 1.32 1.34 1.27 1.27 1.10 0.94 1.04 1.18 1.18
0.45 0.48 0.52 0.58 0.63 0.65 0.63 0.66 0.66 0.43 0.38 0.36 0.70 1.31 1.19 1.37 1.19 1.07 0.98 1.02 1.13 1.15 1.18 1.19 1.18 1.28 1.30 1.28 1.25 1.27 1.39 1.42 1.41 1.41 1.38 1.38 1.29 1.24 1.20 1.09 1.06 1.06 1.13
0.46 0.47 0.47 0.49 0.52 0.53 0.55 0.53 0.59 0.65 0.64 0.58 0.72 1.30 1.21 1.39 1.31 1.11 1.05 1.07 1.12 1.19 1.22 1.38 1.45 1.51 1.51 1.48 1.35 1.25 1.22 1.19 1.19 1.31 1.32 1.38 1.34 1.30 1.38 1.33 1.17 1.13 1.17
0.48 0.46 0.49 0.52 0.48 0.50 0.56 0.58 0.60 0.76 0.75 0.66 0.86 1.48 1.19 1.45 1.43 1.27 1.23 1.22 1.18 1.27 1.52 1.58 1.51 1.55 1.49 1.39 1.30 1.24 1.22 1.13 1.16 1.27 1.28 1.32 1.33 1.30 1.37 1.35 1.25 1.16 1.16
0.49 0.49 0.53 0.58 0.54 0.54 0.57 0.62 0.66 0.79 0.77 0.71 0.94 1.38 1.13 1.37 1.48 1.40 1.49 1.41 1.46 1.50 1.56 1.50 1.40 1.37 1.37 1.34 1.34 1.27 1.17 1.18 1.18 1.17 1.21 1.24 1.22 1.30 1.30 1.36 1.33 1.24 1.07
0.50 0.52 0.54 0.56 0.58 0.58 0.62 0.64 0.68 0.70 0.77 0.78 0.88 1.16 1.13 1.27 1.38 1.41 1.25 1.30 1.41 1.44 1.49 1.43 1.40 1.38 1.33 1.34 1.33 1.28 1.25 1.20 1.17 1.15 1.14 1.17 1.23 1.18 1.29 1.34 1.29 1.27 1.18
0.50 0.52 0.55 0.57 0.58 0.61 0.65 0.66 0.67 0.69 0.75 0.78 0.98 1.04 1.13 1.18 1.28 1.30 1.31 1.32 1.35 1.35 1.27 1.22 1.19 1.21 1.29 1.32 1.32 1.30 1.29 1.23 1.19 1.18 1.12 1.10 1.18 1.18 1.28 1.38 1.38 1.25 1.13
0.52 0.54 0.56 0.58 0.59 0.61 0.63 0.66 0.67 0.73 0.76 0.86 0.96 1.01 1.06 1.08 1.18 1.18 1.15 1.18 1.13 1.16 1.08 1.04 1.02 1.03 1.07 1.12 1.15 1.21 1.25 1.20 1.17 1.15 1.16 1.13 1.16 1.14 1.15 1.25 1.31 1.33 1.31
0.52 0.55 0.57 0.58 0.60 0.63 0.65 0.68 0.71 0.72 0.80 0.82 0.90 0.88 0.88 0.93 1.02 1.00 1.02 1.01 0.98 0.96 0.96 0.96 0.92 0.92 0.96 0.99 1.01 1.02 1.02 1.03 1.05 1.06 1.04 1.04 1.02 0.92 0.98 0.98 1.22 1.24 1.35
0.51 0.53 0.56 0.58 0.60 0.63 0.66 0.68 0.71 0.76 0.79 0.79 0.86 0.82 0.83 0.86 0.85 0.84 0.88 0.90 0.89 0.87 0.85 0.84 0.82 0.83 0.87 0.88 0.87 0.85 0.85 0.87 0.88 0.88 0.89 0.85 0.81 0.77 0.82 0.91 0.94 1.08 1.17
0.47 0.50 0.53 0.57 0.59 0.61 0.65 0.69 0.71 0.74 0.77 0.80 0.80 0.81 0.82 0.82 0.83 0.82 0.82 0.81 0.79 0.81 0.82 0.82 0.83 0.83 0.84 0.82 0.81 0.80 0.81 0.80 0.79 0.79 0.78 0.79 0.82 0.81 0.81 0.90 0.92 0.88 1.14
0.45 0.46 0.48 0.52 0.55 0.57 0.59 0.64 0.66 0.72 0.75 0.78 0.76 0.74 0.74 0.76 0.79 0.82 0.80 0.78 0.79 0.75 0.79 0.77 0.75 0.72 0.73 0.73 0.69 0.65 0.61 0.61 0.59 0.59 0.67 0.80 0.77 0.79 0.81 0.91 0.96 0.94 1.01
0.38 0.43 0.45 0.46 0.48 0.52 0.55 0.56 0.58 0.58 0.65 0.66 0.72 0.73 0.72 0.73 0.69 0.71 0.72 0.73 0.73 0.72 0.64 0.59 0.56 0.54 0.55 0.53 0.53 0.52 0.51 0.51 0.52 0.54 0.58 0.66 0.83 0.82 0.84 0.89 0.92 0.92 1.13
0.37 0.38 0.42 0.45 0.45 0.47 0.48 0.51 0.53 0.52 0.52 0.54 0.56 0.61 0.60 0.60 0.61 0.60 0.55 0.56 0.57 0.54 0.50 0.50 0.50 0.50 0.51 0.51 0.50 0.50 0.51 0.53 0.54 0.55 0.59 0.65 0.81 0.91 0.90 0.92 0.86 0.93 1.04
0.41 0.41 0.41 0.42 0.44 0.45 0.46 0.46 0.46 0.46 0.46 0.47 0.49 0.50 0.52 0.50 0.51 0.51 0.50 0.49 0.49 0.50 0.49 0.48 0.47 0.46 0.46 0.47 0.49 0.50 0.52 0.54 0.56 0.61 0.68 0.73 0.80 0.92 0.99 0.94 0.89 0.91 1.00
0.40 0.40 0.42 0.43 0.42 0.42 0.44 0.43 0.43 0.44 0.42 0.42 0.44 0.46 0.47 0.47 0.46 0.46 0.46 0.45 0.43 0.42 0.44 0.43 0.45 0.45 0.44 0.46 0.47 0.49 0.51 0.52 0.56 0.63 0.72 0.80 0.93 0.90 1.08 0.96 0.93 0.91 0.93
0.38 0.40 0.40 0.39 0.40 0.42 0.42 0.40 0.41 0.41 0.44 0.46 0.44 0.44 0.44 0.43 0.44 0.44 0.44 0.43 0.41 0.42 0.41 0.41 0.42 0.42 0.43 0.44 0.45 0.47 0.51 0.51 0.55 0.59 0.70 0.83 0.94 0.97 1.07 1.03 1.02 0.99 1.05
0.36 0.37 0.37 0.37 0.39 0.40 0.40 0.39 0.38 0.42 0.43 0.44 0.44 0.44 0.43 0.43 0.43 0.42 0.42 0.42 0.41 0.39 0.39 0.39 0.39 0.40 0.40 0.40 0.41 0.44 0.48 0.53 0.56 0.60 0.70 0.79 0.86 0.91 0.96 1.03 1.08 1.12 1.08
0.34 0.35 0.35 0.35 0.36 0.38 0.38 0.36 0.38 0.40 0.40 0.40 0.40 0.41 0.41 0.41 0.41 0.40 0.39 0.38 0.38 0.37 0.36 0.36 0.36 0.36 0.38 0.38 0.39 0.41 0.45 0.51 0.55 0.63 0.67 0.74 0.82 0.84 0.90 0.95 1.00 1.07 1.04
0.33 0.34 0.34 0.33 0.33 0.36 0.36 0.37 0.38 0.38 0.38 0.38 0.39 0.39 0.39 0.39 0.39 0.39 0.38 0.35 0.34 0.33 0.33 0.32 0.33 0.34 0.35 0.36 0.37 0.38 0.41 0.45 0.51 0.57 0.63 0.68 0.71 0.77 0.83 0.86 0.88 0.91 0.97
0.30 0.31 0.32 0.32 0.33 0.34 0.35 0.36 0.37 0.37 0.36 0.37 0.37 0.37 0.37 0.37 0.37 0.37 0.37 0.35 0.36 0.34 0.31 0.32 0.32 0.32 0.34 0.36 0.37 0.36 0.36 0.39 0.43 0.48 0.53 0.59 0.62 0.69 0.72 0.76 0.80 0.81 0.87
0.28 0.28 0.29 0.30 0.31 0.32 0.33 0.34 0.36 0.37 0.36 0.36 0.36 0.36 0.36 0.36 0.36 0.36 0.35 0.37 0.37 0.37 0.36 0.36 0.35 0.35 0.36 0.39 0.39 0.39 0.38 0.39 0.41 0.43 0.44 0.49 0.55 0.60 0.64 0.67 0.71 0.73 0.78

GFSMW_prec_pwat_141.txt.gz
Precipitable_Water
0.42 0.43 0.42 0.40 0.38 0.38 0.39 0.40 0.41 0.47 0.52 0.46 0.48 0.53 0.55 0.60 1.00 1.44 1.58 1.65 1.75 1.56 1.38 1.28 1.25 1.32 1.28 1.26 1.26 1.20 1.16 1.11 1.21 1.13 1.09 1.11 1.21 1.19 1.20 1.19 1.23 1.20 1.20
0.40 0.41 0.41 0.40 0.39 0.39 0.41 0.41 0.41 0.44 0.51 0.54 0.53 0.57 0.57 0.56 0.69 1.10 1.45 1.63 1.74 1.72 1.52 1.33 1.22 1.31 1.31 1.27 1.21 1.20 1.11 1.11 1.18 1.02 0.97 0.84 0.96 1.05 1.12 1.15 1.18 1.18 1.24
0.37 0.37 0.37 0.38 0.39 0.39 0.41 0.41 0.43 0.46 0.51 0.56 0.57 0.58 0.60 0.52 0.49 0.74 1.18 1.43 1.64 1.71 1.64 1.47 1.32 1.26 1.31 1.20 1.18 1.19 1.11 0.97 1.11 1.15 0.99 0.85 0.75 0.91 1.08 1.10 1.19 1.27 1.31
0.37 0.37 0.38 0.39 0.40 0.41 0.44 0.45 0.46 0.50 0.54 0.59 0.61 0.62 0.58 0.51 0.44 0.47 0.74 1.23 1.47 1.66 1.83 1.56 1.34 1.24 1.29 1.24 1.19 1.20 1.12 1.07 0.96 1.12 1.14 1.08 0.95 0.81 0.83 1.12 1.25 1.33 1.32
0.38 0.38 0.40 0.42 0.45 0.46 0.45 0.47 0.48 0.52 0.57 0.61 0.65 0.67 0.67 0.64 0.61 0.57 0.61 0.85 1.29 1.52 1.68 1.66 1.36 1.24 1.26 1.24 1.22 1.19 1.13 1.12 1.03 1.00 1.04 1.07 1.06 1.09 0.98 0.90 1.09 1.29 1.36
0.40 0.41 0.44 0.46 0.47 0.50 0.50 0.49 0.49 0.51 0.58 0.61 0.65 0.67 0.68 0.66 0.62 0.58 0.58 0.56 1.01 1.42 1.58 1.72 1.39 1.24 1.23 1.20 1.18 1.19 1.13 1.08 1.07 1.08 1.05 0.96 0.94 0.95 1.04 0.99 1.04 1.10 1.27
0.41 0.42 0.42 0.45 0.48 0.51 0.52 0.52 0.51 0.52 0.59 0.62 0.62 0.66 0.69 0.69 0.66 0.65 0.59 0.57 0.79 1.09 1.46 1.80 1.48 1.33 1.25 1.26 1.21 1.17 1.11 1.11 1.06 1.04 1.03 1.10 1.11 1.16 1.15 1.11 1.01 1.03 1.23
0.43 0.44 0.46 0.48 0.50 0.51 0.52 0.53 0.52 0.52 0.58 0.60 0.58 0.61 0.68 0.67 0.69 0.70 0.65 0.62 0.61 1.01 1.37 1.54 1.60 1.40 1.30 1.25 1.25 1.19 1.14 1.13 1.09 1.06 1.12 1.17 1.25 1.27 1.24 1.11 1.02 0.95 1.09
0.43 0.45 0.48 0.50 0.52 0.52 0.53 0.53 0.53 0.53 0.57 0.60 0.61 0.64 0.67 0.63 0.67 0.71 0.76 0.70 0.69 0.84 1.09 1.47 1.57 1.45 1.30 1.23 1.26 1.16 1.11 1.14 1.09 1.09 1.17 1.22 1.27 1.32 1.29 1.17 1.14 0.98 0.85
0.43 0.45 0.48 0.52 0.54 0.54 0.56 0.57 0.56 0.55 0.56 0.59 0.62 0.67 0.65 0.67 0.65 0.68 0.67 0.67 0.72 0.71 0.99 1.47 1.30 1.52 1.34 1.34 1.27 1.18 1.19 1.18 1.19 1.17 1.19 1.23 1.26 1.24 1.23 1.20 1.14 1.08 0.98
0.41 0.44 0.45 0.50 0.55 0.56 0.58 0.58 0.58 0.57 0.57 0.60 0.64 0.67 0.66 0.73 0.70 0.67 0.70 0.70 0.75 0.68 0.94 1.11 1.66 1.56 1.37 1.35 1.24 1.19 1.20 1.18 1.28 1.23 1.24 1.21 1.20 1.18 1.23 1.27 1.15 1.10 1.09
0.39 0.41 0.43 0.46 0.47 0.53 0.57 0.58 0.59 0.59 0.61 0.62 0.64 0.66 0.67 0.69 0.71 0.69 0.73 0.81 0.75 0.72 0.83 1.02 1.23 1.52 1.38 1.32 1.24 1.23 1.29 1.39 1.38 1.33 1.28 1.24 1.26 1.24 1.30 1.26 1.16 1.14 1.15
0.38 0.39 0.40 0.41 0.43 0.45 0.52 0.57 0.60 0.61 0.63 0.64 0.63 0.63 0.65 0.66 0.66 0.68 0.70 0.78 0.71 0.79 0.87 1.02 1.01 1.22 1.19 1.24 1.22 1.20 1.21 1.33 1.27 1.35 1.33 1.34 1.35 1.30 1.28 1.24 1.19 1.19 1.17
0.37 0.38 0.39 0.38 0.40 0.42 0.46 0.49 0.55 0.61 0.62 0.63 0.62 0.62 0.64 0.67 0.66 0.76 0.76 0.71 0.75 0.78 0.84 1.01 1.07 1.13 1.19 1.18 1.16 1.14 1.18 1.15 1.19 1.26 1.22 1.22 1.16 1.17 1.15 1.17 1.18 1.18 1.13
0.37 0.39 0.38 0.39 0.39 0.40 0.43 0.46 0.49 0.52 0.60 0.61 0.62 0.63 0.65 0.68 0.67 0.70 0.81 0.80 0.79 0.75 0.81 0.88 0.92 1.06 1.04 1.10 1.05 1.06 1.09 1.11 1.12 1.16 1.15 1.10 1.10 1.05 1.02 0.97 0.99 1.04 1.01
0.35 0.37 0.38 0.38 0.39 0.40 0.41 0.42 0.45 0.48 0.51 0.55 0.59 0.62 0.63 0.65 0.69 0.72 0.77 0.76 0.75 0.78 0.81 0.86 0.90 1.00 0.98 1.00 0.99 1.00 1.01 0.99 0.98 0.93 0.89 0.87 0.87 0.86 0.87 0.89 0.90 0.89 0.86
0.34 0.35 0.37 0.37 0.37 0.38 0.40 0.41 0.43 0.46 0.48 0.50 0.52 0.56 0.60 0.61 0.63 0.66 0.71 0.68 0.73 0.80 0.81 0.82 0.83 0.89 0.93 0.96 0.96 0.94 0.86 0.84 0.84 0.81 0.82 0.81 0.80 0.79 0.77 0.77 0.76 0.77 0.76
0.32 0.33 0.36 0.36 0.37 0.38 0.39 0.40 0.42 0.43 0.44 0.46 0.47 0.49 0.51 0.54 0.56 0.56 0.57 0.59 0.61 0.64 0.68 0.73 0.73 0.78 0.83 0.84 0.83 0.82 0.82 0.83 0.81 0.78 0.71 0.66 0.63 0.64 0.60 0.56 0.54 0.55 0.57
0.33 0.34 0.36 0.36 0.36 0.37 0.38 0.37 0.38 0.39 0.40 0.41 0.44 0.46 0.47 0.45 0.46 0.48 0.50 0.51 0.53 0.53 0.52 0.55 0.59 0.60 0.59 0.63 0.63 0.65 0.61 0.58 0.57 0.60 0.60 0.60 0.57 0.56 0.54 0.51 0.50 0.53 0.56
0.33 0.33 0.34 0.35 0.35 0.36 0.37 0.35 0.35 0.36 0.36 0.38 0.39 0.43 0.44 0.45 0.44 0.42 0.43 0.48 0.48 0.47 0.48 0.48 0.47 0.48 0.51 0.53 0.49 0.47 0.49 0.49 0.50 0.53 0.54 0.54 0.51 0.53 0.53 0.51 0.50 0.49 0.56
0.30 0.31 0.31 0.31 0.32 0.34 0.34 0.33 0.34 0.34 0.37 0.38 0.39 0.39 0.40 0.41 0.41 0.43 0.42 0.41 0.41 0.42 0.43 0.42 0.42 0.43 0.44 0.45 0.48 0.47 0.44 0.41 0.39 0.39 0.41 0.43 0.46 0.49 0.51 0.51 0.50 0.51 0.58
0.28 0.29 0.29 0.29 0.31 0.31 0.31 0.31 0.31 0.35 0.36 0.36 0.36 0.37 0.38 0.39 0.39 0.38 0.37 0.39 0.39 0.38 0.37 0.37 0.37 0.40 0.40 0.39 0.40 0.40 0.41 0.41 0.38 0.36 0.37 0.37 0.38 0.41 0.47 0.50 0.51 0.56 0.58
0.28 0.28 0.28 0.27 0.29 0.28 0.29 0.28 0.30 0.32 0.33 0.33 0.34 0.34 0.35 0.36 0.38 0.37 0.35 0.34 0.33 0.33 0.35 0.35 0.34 0.34 0.36 0.38 0.38 0.36 0.37 0.37 0.36 0.38 0.37 0.36 0.35 0.36 0.38 0.43 0.49 0.55 0.56
0.27 0.26 0.23 0.22 0.21 0.21 0.22 0.24 0.26 0.28 0.28 0.29 0.31 0.31 0.31 0.32 0.34 0.36 0.35 0.33 0.32 0.29 0.30 0.31 0.31 0.32 0.34 0.35 0.35 0.36 0.35 0.33 0.33 0.33 0.33 0.34 0.34 0.34 0.34 0.37 0.40 0.48 0.49
0.21 0.19 0.17 0.17 0.17 0.17 0.18 0.20 0.22 0.24 0.21 0.23 0.26 0.27 0.28 0.29 0.30 0.31 0.33 0.32 0.32 0.31 0.29 0.30 0.30 0.30 0.29 0.31 0.33 0.33 0.33 0.32 0.32 0.32 0.32 0.31 0.31 0.30 0.31 0.32 0.34 0.38 0.41
0.17 0.16 0.15 0.15 0.15 0.15 0.16 0.18 0.19 0.21 0.17 0.18 0.19 0.19 0.21 0.24 0.26 0.27 0.27 0.30 0.32 0.29 0.27 0.29 0.30 0.30 0.31 0.31 0.31 0.31 0.32 0.32 0.31 0.29 0.28 0.28 0.27 0.27 0.27 0.27 0.29 0.32 0.33

GFSMW_prec_pwat_144.txt.gz
Precipitable_Water
0.42 0.43 0.43 0.43 0.42 0.41 0.40 0.39 0.37 0.37 0.37 0.38 0.39 0.41 0.43 0.47 0.50 0.61 0.80 1.12 1.47 1.64 1.74 1.77 1.51 1.29 1.26 1.24 1.28 1.27 1.16 1.08 1.05 1.02 1.00 1.11 1.15 1.15 1.14 1.11 1.11 1.10 1.13
0.40 0.41 0.42 0.41 0.39 0.37 0.38 0.38 0.38 0.39 0.39 0.41 0.42 0.44 0.47 0.52 0.55 0.58 0.62 0.85 1.08 1.45 1.52 1.72 1.72 1.47 1.25 1.29 1.26 1.26 1.17 1.14 1.12 0.96 0.93 0.82 0.97 1.00 1.09 1.13 1.07 1.08 1.14
0.39 0.40 0.39 0.38 0.39 0.38 0.39 0.41 0.42 0.43 0.43 0.45 0.47 0.48 0.49 0.51 0.54 0.59 0.58 0.68 0.87 1.10 1.39 1.50 1.67 1.54 1.43 1.27 1.26 1.23 1.22 1.03 1.11 1.07 0.95 0.76 0.67 0.84 1.01 1.05 1.08 1.11 1.17
0.42 0.42 0.40 0.39 0.39 0.40 0.43 0.44 0.46 0.46 0.46 0.48 0.48 0.48 0.46 0.44 0.51 0.57 0.63 0.60 0.63 0.74 0.94 1.36 1.58 1.86 1.60 1.35 1.31 1.25 1.22 1.20 1.01 1.11 1.11 1.03 0.90 0.72 0.69 0.97 1.07 1.18 1.19
0.42 0.41 0.41 0.41 0.42 0.43 0.44 0.45 0.48 0.49 0.50 0.50 0.50 0.51 0.50 0.54 0.56 0.58 0.62 0.63 0.62 0.67 0.76 0.92 1.30 1.42 1.49 1.60 1.35 1.26 1.26 1.24 1.13 1.03 1.00 1.00 0.95 0.93 0.80 0.70 0.88 1.12 1.20
0.44 0.43 0.44 0.43 0.43 0.46 0.45 0.48 0.49 0.51 0.54 0.52 0.53 0.53 0.54 0.54 0.56 0.58 0.60 0.67 0.67 0.66 0.65 0.74 1.06 1.39 1.46 1.75 1.52 1.36 1.31 1.24 1.22 1.14 1.07 0.95 0.87 0.82 0.83 0.79 0.87 0.95 1.14
0.43 0.40 0.40 0.42 0.43 0.44 0.45 0.50 0.51 0.52 0.55 0.54 0.54 0.56 0.59 0.60 0.58 0.58 0.61 0.64 0.66 0.67 0.65 0.72 0.85 1.13 1.45 1.47 1.67 1.55 1.32 1.30 1.22 1.11 1.06 1.07 1.03 1.01 0.97 0.96 0.95 0.95 1.11
0.42 0.40 0.40 0.42 0.43 0.44 0.46 0.51 0.53 0.53 0.55 0.55 0.54 0.57 0.60 0.60 0.60 0.61 0.64 0.65 0.70 0.76 0.80 0.72 0.73 0.82 1.20 1.55 1.51 1.52 1.39 1.36 1.24 1.11 1.09 1.07 1.10 1.08 1.02 0.97 1.00 0.95 1.02
0.40 0.40 0.40 0.41 0.41 0.43 0.47 0.53 0.55 0.55 0.56 0.56 0.56 0.57 0.58 0.57 0.55 0.55 0.59 0.59 0.68 0.75 0.78 0.74 0.68 0.69 0.76 1.12 1.34 1.61 1.43 1.37 1.26 1.15 1.08 1.07 1.12 1.14 1.13 1.16 1.15 1.02 0.84
0.38 0.38 0.38 0.39 0.40 0.42 0.44 0.51 0.57 0.56 0.56 0.57 0.58 0.58 0.59 0.61 0.64 0.64 0.64 0.63 0.64 0.70 0.73 0.70 0.69 0.68 0.65 0.87 1.47 1.32 1.56 1.45 1.33 1.26 1.10 1.12 1.14 1.15 1.21 1.23 1.25 1.19 1.03
0.36 0.37 0.37 0.38 0.39 0.41 0.42 0.45 0.50 0.58 0.57 0.57 0.57 0.57 0.59 0.61 0.64 0.66 0.68 0.69 0.70 0.72 0.69 0.61 0.60 0.60 0.68 0.80 1.13 1.31 1.47 1.44 1.34 1.29 1.14 1.16 1.17 1.19 1.30 1.28 1.29 1.19 1.10
0.38 0.37 0.37 0.37 0.38 0.38 0.40 0.42 0.47 0.50 0.58 0.59 0.59 0.59 0.60 0.63 0.62 0.64 0.67 0.68 0.67 0.69 0.66 0.62 0.62 0.61 0.64 0.76 1.04 1.07 1.28 1.43 1.38 1.28 1.22 1.20 1.27 1.27 1.27 1.28 1.24 1.18 1.19
0.39 0.39 0.38 0.37 0.37 0.38 0.39 0.41 0.42 0.47 0.53 0.59 0.60 0.61 0.61 0.61 0.64 0.63 0.65 0.66 0.66 0.75 0.74 0.73 0.63 0.65 0.63 0.62 0.87 1.05 1.19 1.31 1.27 1.22 1.22 1.18 1.21 1.25 1.28 1.30 1.26 1.21 1.24
0.37 0.38 0.37 0.36 0.37 0.38 0.39 0.40 0.41 0.44 0.48 0.54 0.57 0.59 0.61 0.61 0.61 0.62 0.64 0.64 0.68 0.70 0.79 0.75 0.71 0.68 0.68 0.68 0.81 0.93 1.06 1.21 1.22 1.26 1.22 1.21 1.17 1.21 1.21 1.21 1.18 1.20 1.21
0.34 0.36 0.35 0.35 0.36 0.37 0.38 0.39 0.40 0.42 0.45 0.47 0.52 0.56 0.60 0.62 0.61 0.61 0.62 0.65 0.67 0.69 0.72 0.72 0.70 0.69 0.65 0.67 0.71 0.90 0.97 1.08 1.13 1.18 1.12 1.14 1.13 1.21 1.18 1.15 1.19 1.16 1.12
0.32 0.34 0.34 0.33 0.33 0.35 0.36 0.37 0.38 0.39 0.42 0.43 0.45 0.50 0.54 0.59 0.59 0.60 0.60 0.63 0.66 0.68 0.69 0.73 0.70 0.70 0.70 0.67 0.77 0.84 0.94 0.97 1.03 1.10 1.09 1.10 1.10 1.10 1.11 1.13 1.16 1.15 1.06
0.29 0.31 0.31 0.32 0.33 0.34 0.35 0.35 0.37 0.39 0.39 0.39 0.41 0.45 0.46 0.49 0.53 0.56 0.58 0.59 0.61 0.65 0.67 0.68 0.69 0.69 0.70 0.73 0.87 0.93 0.93 0.92 0.93 0.96 1.01 1.00 1.04 1.07 1.05 1.02 1.02 1.00 0.98
0.28 0.30 0.31 0.31 0.33 0.33 0.35 0.35 0.37 0.37 0.37 0.37 0.38 0.40 0.41 0.42 0.45 0.46 0.50 0.51 0.52 0.55 0.56 0.59 0.63 0.66 0.67 0.76 0.79 0.86 0.87 0.86 0.90 0.93 0.94 0.94 0.91 0.88 0.84 0.82 0.82 0.82 0.80
0.29 0.30 0.30 0.30 0.32 0.31 0.33 0.34 0.34 0.35 0.35 0.35 0.37 0.38 0.39 0.37 0.39 0.42 0.42 0.43 0.46 0.47 0.47 0.49 0.50 0.53 0.61 0.66 0.68 0.72 0.77 0.82 0.84 0.85 0.87 0.86 0.84 0.83 0.82 0.78 0.71 0.67 0.66
0.28 0.28 0.29 0.29 0.29 0.29 0.31 0.31 0.31 0.32 0.32 0.33 0.35 0.37 0.38 0.36 0.35 0.36 0.38 0.42 0.42 0.41 0.43 0.44 0.44 0.47 0.49 0.53 0.58 0.59 0.58 0.56 0.59 0.65 0.64 0.66 0.67 0.63 0.63 0.62 0.59 0.54 0.55
0.28 0.28 0.29 0.28 0.27 0.28 0.28 0.27 0.28 0.29 0.31 0.32 0.33 0.34 0.36 0.37 0.36 0.35 0.33 0.35 0.37 0.39 0.39 0.38 0.39 0.41 0.42 0.43 0.45 0.46 0.49 0.49 0.45 0.45 0.46 0.50 0.48 0.50 0.50 0.51 0.50 0.49 0.52
0.27 0.28 0.27 0.27 0.25 0.25 0.24 0.22 0.23 0.26 0.28 0.29 0.29 0.30 0.32 0.33 0.35 0.33 0.33 0.31 0.31 0.30 0.31 0.34 0.34 0.36 0.37 0.39 0.40 0.39 0.40 0.41 0.41 0.43 0.41 0.41 0.41 0.40 0.41 0.42 0.43 0.45 0.47
0.27 0.27 0.23 0.19 0.19 0.19 0.20 0.18 0.20 0.22 0.23 0.23 0.24 0.25 0.27 0.29 0.30 0.28 0.28 0.28 0.28 0.29 0.29 0.29 0.29 0.31 0.34 0.35 0.36 0.36 0.36 0.35 0.33 0.35 0.36 0.37 0.36 0.37 0.36 0.36 0.37 0.38 0.39
0.21 0.18 0.17 0.15 0.14 0.16 0.17 0.18 0.18 0.19 0.19 0.18 0.18 0.20 0.21 0.22 0.24 0.26 0.26 0.25 0.25 0.24 0.25 0.25 0.25 0.27 0.29 0.31 0.33 0.33 0.34 0.34 0.33 0.33 0.33 0.33 0.33 0.34 0.34 0.35 0.34 0.34 0.34
0.16 0.15 0.14 0.13 0.12 0.15 0.15 0.16 0.17 0.17 0.16 0.16 0.16 0.16 0.17 0.18 0.17 0.18 0.20 0.19 0.20 0.22 0.22 0.23 0.23 0.23 0.24 0.27 0.30 0.30 0.30 0.31 0.31 0.32 0.31 0.31 0.30 0.29 0.29 0.30 0.30 0.31 0.31
0.14 0.13 0.13 0.12 0.12 0.14 0.15 0.16 0.16 0.16 0.15 0.14 0.14 0.14 0.14 0.15 0.15 0.15 0.15 0.18 0.17 0.17 0.18 0.19 0.20 0.21 0.22 0.23 0.24 0.26 0.27 0.28 0.28 0.27 0.27 0.27 0.27 0.27 0.28 0.28 0.28 0.28 0.29